Location: Unspecified
(0.0000°N, 0.0000°E)
Time: 19:11:06
(UTC+00:00)

Envisat - Pass Details

Date: 28 April 2019
Orbit: 764 x 766 km, 98.2° (Epoch: 22 May)

Event Time Altitude Azimuth Distance (km) Brightness Sun altitude
Rises 18:51:46 0° 166° (SSE) 3,231 6.0 -13.1°
Reaches altitude 10° 18:54:05 10° 165° (SSE) 2,303 5.2 -13.7°
Maximum altitude 18:59:10 79° 78° (ENE) 781 2.9 -14.9°
Drops below altitude 10° 19:04:13 10° 352° (N) 2,293 5.8 -16.1°
Sets 19:06:30 0° 351° (N) 3,216 6.6 -16.7°
